User: anonymous   Login
Location: Unspecified
(0.0000°N, 0.0000°E)
Time: 20:02:50
(UTC+02:00)
Language:

H-2A R/B - Orbit

View from above orbital plane
View from above orbital plane
View from above satellite
View from above satellite

Ground track
Ground track

The orbit data is extracted from the following two-line orbital elements,

1 28932U 06002B   16152.21764150  .00000546  00000-0  57441-4 0  9993
2 28932  98.2166  53.8039 0092003 122.1535  29.7757 14.90885721560888
Epoch (UTC): 31 May 2016 05:13:24
Eccentricity: 0.0092003
inclination: 98.2166°
perigee height: 531 km
apogee height: 659 km
right ascension of ascending node: 53.8039°
argument of perigee: 122.1535°
revolutions per day: 14.90885721
mean anomaly at epoch: 29.7757°
orbit number at epoch: 56088

The dashed part of the orbit path shows where the satellite is in the earth's shadow,  

DLR